| time (UTC) | temp F | wind direction | speed MPH | gust MPH | rain 1hr in | rain 24hr in | rain mn in | humidity % | barometer mb |
| 20260510174403 | 67 | 293 | 2.0 | 7.0 | 0.00 | 0.35 | 0.00 | 64 | 1011.5 |
| 20260510173903 | 67 | 285 | 5.0 | 7.0 | 0.00 | 0.35 | 0.00 | 65 | 1011.4 |
| 20260510173404 | 67 | 300 | 3.0 | 6.0 | 0.00 | 0.35 | 0.00 | 66 | 1011.4 |
| 20260510172903 | 67 | 225 | 3.0 | 9.0 | 0.00 | 0.35 | 0.00 | 65 | 1011.6 |
| 20260510172404 | 66 | 252 | 4.0 | 8.0 | 0.00 | 0.35 | 0.00 | 65 | 1011.6 |
| 20260510171904 | 66 | 303 | 4.0 | 7.0 | 0.00 | 0.35 | 0.00 | 66 | 1011.5 |
| 20260510171404 | 67 | 287 | 3.0 | 5.0 | 0.00 | 0.35 | 0.00 | 64 | 1011.6 |
| 20260510170904 | 67 | 205 | 3.0 | 9.0 | 0.00 | 0.36 | 0.00 | 64 | 1011.7 |
| 20260510165904 | 68 | 257 | 5.0 | 8.0 | 0.00 | 0.36 | 0.00 | 66 | 1011.6 |
| 20260510165404 | 68 | 254 | 5.0 | 10.0 | 0.00 | 0.36 | 0.00 | 67 | 1011.6 |
| 20260510164904 | 67 | 168 | 3.0 | 9.0 | 0.00 | 0.36 | 0.00 | 66 | 1011.6 |
| 20260510164404 | 67 | 302 | 5.0 | 12.0 | 0.00 | 0.36 | 0.00 | 64 | 1011.7 |
| 20260510163904 | 67 | 245 | 4.0 | 8.0 | 0.00 | 0.36 | 0.00 | 66 | 1011.8 |
| 20260510162904 | 66 | 312 | 5.0 | 9.0 | 0.00 | 0.36 | 0.00 | 67 | 1011.9 |
| 20260510162404 | 66 | 271 | 6.0 | 9.0 | 0.00 | 0.36 | 0.00 | 68 | 1012.0 |
| 20260510161904 | 65 | 252 | 3.0 | 6.0 | 0.00 | 0.36 | 0.00 | 72 | 1012.0 |
| 20260510161404 | 65 | 311 | 3.0 | 6.0 | 0.00 | 0.37 | 0.00 | 72 | 1012.0 |
| 20260510160904 | 65 | 275 | 1.0 | 8.0 | 0.00 | 0.37 | 0.00 | 73 | 1012.1 |
| 20260510160404 | 65 | 194 | 2.0 | 6.0 | 0.00 | 0.37 | 0.00 | 72 | 1011.9 |
| 20260510155404 | 65 | 55 | 4.0 | 7.0 | 0.00 | 0.37 | 0.00 | 73 | 1012.0 |
| 20260510154904 | 65 | 213 | 3.0 | 7.0 | 0.00 | 0.37 | 0.00 | 77 | 1012.1 |
| 20260510154404 | 64 | 212 | 3.0 | 6.0 | 0.00 | 0.37 | 0.00 | 80 | 1012.1 |
| 20260510153904 | 64 | 221 | 3.0 | 7.0 | 0.00 | 0.37 | 0.00 | 78 | 1012.2 |
| 20260510153404 | 63 | 269 | 2.0 | 5.0 | 0.00 | 0.37 | 0.00 | 79 | 1012.3 |
| 20260510151904 | 63 | 306 | 4.0 | 7.0 | 0.00 | 0.37 | 0.00 | 81 | 1012.4 |
| 20260510151404 | 62 | 256 | 2.0 | 8.0 | 0.00 | 0.37 | 0.00 | 80 | 1012.4 |
| 20260510150904 | 62 | 268 | 3.0 | 7.0 | 0.00 | 0.37 | 0.00 | 82 | 1012.3 |
| 20260510150404 | 61 | 198 | 3.0 | 6.0 | 0.00 | 0.37 | 0.00 | 82 | 1012.4 |
| 20260510145904 | 60 | 265 | 4.0 | 8.0 | 0.00 | 0.37 | 0.00 | 86 | 1012.4 |
| 20260510145404 | 60 | 278 | 2.0 | 5.0 | 0.00 | 0.37 | 0.00 | 84 | 1012.2 |
| 20260510144904 | 60 | 276 | 2.0 | 6.0 | 0.00 | 0.37 | 0.00 | 83 | 1012.2 |
| 20260510143404 | 60 | 254 | 4.0 | 7.0 | 0.00 | 0.37 | 0.00 | 84 | 1012.3 |
| 20260510142904 | 60 | 251 | 4.0 | 7.0 | 0.00 | 0.37 | 0.00 | 83 | 1012.2 |
| 20260510142404 | 59 | 239 | 5.0 | 7.0 | 0.00 | 0.37 | 0.00 | 86 | 1012.3 |
| 20260510141405 | 58 | 253 | 4.0 | 6.0 | 0.00 | 0.37 | 0.00 | 89 | 1012.4 |
| 20260510140904 | 58 | 237 | 3.0 | 6.0 | 0.00 | 0.37 | 0.00 | 89 | 1012.4 |
| 20260510140405 | 57 | 240 | 4.0 | 7.0 | 0.00 | 0.37 | 0.00 | 90 | 1012.3 |
| 20260510135404 | 56 | 229 | 2.0 | 5.0 | 0.00 | 0.37 | 0.00 | 95 | 1012.3 |
| 20260510134904 | 56 | 237 | 2.0 | 5.0 | 0.00 | 0.37 | 0.00 | 94 | 1012.3 |
| 20260510133906 | 55 | 242 | 3.0 | 5.0 | 0.00 | 0.37 | 0.00 | 94 | 1012.3 |
| 20260510132904 | 55 | 186 | 2.0 | 3.0 | 0.00 | 0.37 | 0.00 | 96 | 1012.2 |
| 20260510132405 | 54 | 193 | 1.0 | 3.0 | 0.00 | 0.37 | 0.00 | 97 | 1012.2 |
| 20260510131905 | 54 | 232 | 0.0 | 0.0 | 0.00 | 0.37 | 0.00 | 96 | 1012.3 |
| 20260510131404 | 53 | 232 | 0.0 | 1.0 | 0.00 | 0.37 | 0.00 | 97 | 1012.2 |
| 20260510130905 | 53 | 193 | 1.0 | 2.0 | 0.00 | 0.37 | 0.00 | 97 | 1012.3 |
| 20260510130404 | 53 | 231 | 0.0 | 2.0 | 0.00 | 0.37 | 0.00 | 97 | 1012.4 |
| 20260510125904 | 53 | 238 | 1.0 | 2.0 | 0.00 | 0.37 | 0.00 | 97 | 1012.3 |
| 20260510125404 | 52 | 209 | 0.0 | 1.0 | 0.00 | 0.37 | 0.00 | 97 | 1012.1 |
| 20260510124905 | 52 | 210 | 0.0 | 0.0 | 0.00 | 0.37 | 0.00 | 97 | 1012.0 |
| 20260510124404 | 52 | 210 | 0.0 | 0.0 | 0.00 | 0.37 | 0.00 | 98 | 1012.0 |
| 20260510123404 | 52 | 210 | 0.0 | 0.0 | 0.00 | 0.37 | 0.00 | 98 | 1012.0 |
| 20260510122405 | 52 | 0 | 0.0 | 0.0 | 0.00 | 0.37 | 0.00 | 98 | 1011.9 |
| 20260510121904 | 52 | 0 | 0.0 | 0.0 | 0.00 | 0.37 | 0.00 | 98 | 1012.0 |
| 20260510120904 | 52 | 0 | 0.0 | 1.0 | 0.00 | 0.37 | 0.00 | 98 | 1011.9 |
| 20260510120404 | 51 | 31 | 0.0 | 1.0 | 0.00 | 0.37 | 0.00 | 98 | 1011.9 |
| 20260510115905 | 51 | 280 | 0.0 | 0.0 | 0.00 | 0.37 | 0.00 | 98 | 1011.9 |
| 20260510115404 | 51 | 280 | 0.0 | 0.0 | 0.00 | 0.37 | 0.00 | 98 | 1011.9 |
| 20260510114904 | 51 | 280 | 0.0 | 0.0 | 0.00 | 0.37 | 0.00 | 98 | 1011.9 |
| 20260510114406 | 51 | 280 | 0.0 | 1.0 | 0.00 | 0.38 | 0.00 | 98 | 1011.9 |
| 20260510113909 | 51 | 285 | 0.0 | 1.0 | 0.00 | 0.38 | 0.00 | 98 | 1011.8 |
| 20260510113404 | 50 | 301 | 0.0 | 1.0 | 0.00 | 0.38 | 0.00 | 98 | 1011.8 |
| 20260510112904 | 50 | 198 | 0.0 | 0.0 | 0.00 | 0.38 | 0.00 | 98 | 1011.6 |
| 20260510111904 | 50 | 198 | 0.0 | 0.0 | 0.00 | 0.38 | 0.00 | 98 | 1011.6 |
| 20260510111404 | 50 | 198 | 0.0 | 0.0 | 0.00 | 0.38 | 0.00 | 98 | 1011.5 |
| 20260510110905 | 50 | 198 | 0.0 | 1.0 | 0.00 | 0.38 | 0.00 | 98 | 1011.6 |
| 20260510110405 | 50 | 235 | 0.0 | 1.0 | 0.00 | 0.38 | 0.00 | 98 | 1011.5 |
| 20260510105404 | 50 | 243 | 0.0 | 2.0 | 0.00 | 0.38 | 0.00 | 98 | 1011.3 |
| 20260510103905 | 50 | 267 | 0.0 | 1.0 | 0.00 | 0.38 | 0.00 | 98 | 1011.3 |
| 20260510102904 | 50 | 241 | 0.0 | 0.0 | 0.00 | 0.39 | 0.00 | 98 | 1011.2 |
| 20260510102404 | 50 | 241 | 0.0 | 0.0 | 0.00 | 0.39 | 0.00 | 98 | 1011.2 |
| 20260510101904 | 50 | 241 | 0.0 | 1.0 | 0.00 | 0.39 | 0.00 | 98 | 1011.0 |
| 20260510100904 | 50 | 215 | 1.0 | 3.0 | 0.00 | 0.40 | 0.00 | 98 | 1011.1 |
| 20260510095905 | 50 | 249 | 2.0 | 3.0 | 0.00 | 0.40 | 0.00 | 98 | 1010.9 |
| 20260510094904 | 50 | 215 | 2.0 | 5.0 | 0.00 | 0.41 | 0.00 | 98 | 1010.5 |
| 20260510094404 | 50 | 209 | 2.0 | 5.0 | 0.00 | 0.41 | 0.00 | 98 | 1010.5 |
| 20260510093904 | 50 | 260 | 1.0 | 3.0 | 0.00 | 0.41 | 0.00 | 98 | 1010.5 |
| 20260510093405 | 50 | 179 | 0.0 | 1.0 | 0.00 | 0.41 | 0.00 | 98 | 1010.7 |
| 20260510092404 | 50 | 247 | 1.0 | 3.0 | 0.00 | 0.41 | 0.00 | 98 | 1011.0 |
| 20260510091904 | 50 | 244 | 1.0 | 2.0 | 0.00 | 0.42 | 0.00 | 98 | 1010.8 |
| 20260510091405 | 50 | 222 | 1.0 | 2.0 | 0.00 | 0.42 | 0.00 | 98 | 1010.9 |
| 20260510090905 | 50 | 233 | 1.0 | 1.0 | 0.00 | 0.42 | 0.00 | 98 | 1011.0 |
| 20260510090404 | 50 | 271 | 2.0 | 3.0 | 0.00 | 0.43 | 0.00 | 98 | 1011.0 |
| 20260510085905 | 50 | 247 | 1.0 | 3.0 | 0.00 | 0.43 | 0.00 | 98 | 1010.8 |
| 20260510085405 | 50 | 233 | 1.0 | 2.0 | 0.00 | 0.44 | 0.00 | 98 | 1011.0 |
| 20260510084905 | 50 | 247 | 1.0 | 2.0 | 0.00 | 0.44 | 0.00 | 98 | 1011.1 |
| 20260510084404 | 50 | 243 | 1.0 | 2.0 | 0.00 | 0.44 | 0.00 | 98 | 1011.1 |
| 20260510083404 | 50 | 269 | 2.0 | 7.0 | 0.00 | 0.45 | 0.00 | 98 | 1011.1 |
| 20260510082904 | 50 | 285 | 2.0 | 5.0 | 0.00 | 0.46 | 0.00 | 98 | 1011.1 |
| 20260510082405 | 50 | 296 | 2.0 | 3.0 | 0.00 | 0.46 | 0.00 | 98 | 1011.0 |
| 20260510081904 | 50 | 254 | 0.0 | 3.0 | 0.00 | 0.47 | 0.00 | 98 | 1011.0 |
| 20260510081404 | 50 | 246 | 0.0 | 1.0 | 0.00 | 0.47 | 0.00 | 98 | 1011.0 |
| 20260510080904 | 50 | 269 | 0.0 | 1.0 | 0.00 | 0.48 | 0.00 | 98 | 1011.1 |
| 20260510075904 | 50 | 232 | 0.0 | 3.0 | 0.00 | 0.48 | 0.00 | 98 | 1011.0 |
| 20260510075404 | 50 | 239 | 0.0 | 2.0 | 0.00 | 0.48 | 0.00 | 98 | 1011.2 |
| 20260510074904 | 50 | 247 | 1.0 | 2.0 | 0.00 | 0.48 | 0.00 | 98 | 1011.1 |
| 20260510074404 | 50 | 292 | 1.0 | 2.0 | 0.00 | 0.48 | 0.00 | 98 | 1011.1 |
| 20260510073404 | 50 | 296 | 2.0 | 6.0 | 0.00 | 0.48 | 0.00 | 98 | 1011.0 |
| 20260510072904 | 50 | 220 | 0.0 | 1.0 | 0.00 | 0.48 | 0.00 | 98 | 1010.9 |
| 20260510070905 | 50 | 223 | 0.0 | 1.0 | 0.00 | 0.48 | 0.00 | 98 | 1010.8 |
| 20260510070405 | 50 | 213 | 0.0 | 1.0 | 0.00 | 0.48 | 0.00 | 98 | 1010.7 |
| 20260510065905 | 50 | 222 | 1.0 | 2.0 | 0.00 | 0.48 | 0.00 | 98 | 1010.8 |
| 20260510065404 | 50 | 262 | 1.0 | 2.0 | 0.00 | 0.48 | 0.00 | 98 | 1010.9 |
| 20260510064904 | 50 | 220 | 0.0 | 0.0 | 0.00 | 0.48 | 0.00 | 98 | 1010.8 |
| 20260510064405 | 50 | 220 | 0.0 | 0.0 | 0.00 | 0.48 | 0.00 | 98 | 1010.8 |
| 20260510063405 | 50 | 220 | 0.0 | 0.0 | 0.00 | 0.48 | 0.00 | 98 | 1010.9 |
| 20260510061905 | 50 | 220 | 0.0 | 0.0 | 0.00 | 0.48 | 0.00 | 98 | 1010.7 |
| 20260510061405 | 50 | 220 | 0.0 | 0.0 | 0.00 | 0.48 | 0.00 | 98 | 1010.7 |
| 20260510060905 | 50 | 220 | 0.0 | 0.0 | 0.00 | 0.48 | 0.00 | 98 | 1010.5 |
| 20260510055405 | 51 | 220 | 0.0 | 0.0 | 0.00 | 0.48 | 0.00 | 98 | 1010.4 |
| 20260510054905 | 51 | 220 | 0.0 | 0.0 | 0.00 | 0.48 | 0.00 | 98 | 1010.4 |
| 20260510054405 | 51 | 220 | 0.0 | 0.0 | 0.00 | 0.48 | 0.00 | 98 | 1010.4 |
| 20260510053904 | 51 | 220 | 0.0 | 0.0 | 0.00 | 0.48 | 0.00 | 98 | 1010.5 |
| 20260510052404 | 50 | 220 | 0.0 | 0.0 | 0.00 | 0.48 | 0.00 | 98 | 1010.5 |
| 20260510051904 | 50 | 220 | 0.0 | 0.0 | 0.00 | 0.48 | 0.00 | 98 | 1010.5 |
| 20260510051404 | 50 | 220 | 0.0 | 0.0 | 0.00 | 0.48 | 0.00 | 98 | 1010.7 |
| 20260510050904 | 50 | 220 | 0.0 | 0.0 | 0.00 | 0.48 | 0.00 | 98 | 1010.8 |
| 20260510045855 | 50 | 220 | 0.0 | 0.0 | 0.00 | 0.48 | 0.00 | 97 | 1010.7 |
| 20260510045355 | 50 | 220 | 0.0 | 0.0 | 0.00 | 0.48 | 0.00 | 97 | 1010.7 |
| 20260510044855 | 50 | 220 | 0.0 | 0.0 | 0.00 | 0.48 | 0.00 | 97 | 1010.7 |
| 20260510044355 | 50 | 220 | 0.0 | 0.0 | 0.00 | 0.48 | 0.00 | 97 | 1010.5 |
| 20260510043855 | 50 | 220 | 0.0 | 0.0 | 0.00 | 0.48 | 0.00 | 97 | 1010.7 |
| 20260510043355 | 50 | 220 | 0.0 | 0.0 | 0.00 | 0.48 | 0.00 | 97 | 1010.7 |
| 20260510042355 | 51 | 220 | 0.0 | 0.0 | 0.00 | 0.48 | 0.00 | 97 | 1010.5 |
| 20260510041855 | 51 | 220 | 0.0 | 0.0 | 0.00 | 0.48 | 0.00 | 97 | 1010.4 |
| 20260510041355 | 51 | 220 | 0.0 | 0.0 | 0.00 | 0.48 | 0.00 | 97 | 1010.5 |
| 20260510040855 | 51 | 220 | 0.0 | 0.0 | 0.00 | 0.48 | 0.00 | 97 | 1010.5 |
| 20260510040406 | 51 | 220 | 0.0 | 0.0 | 0.00 | 0.48 | 0.00 | 97 | 1010.5 |
| 20260510035855 | 51 | 220 | 0.0 | 0.0 | 0.00 | 0.48 | 0.48 | 97 | 1010.5 |
| 20260510035355 | 51 | 220 | 0.0 | 0.0 | 0.00 | 0.48 | 0.48 | 97 | 1010.5 |
| 20260510034856 | 51 | 220 | 0.0 | 0.0 | 0.00 | 0.48 | 0.48 | 97 | 1010.7 |
| 20260510034355 | 51 | 220 | 0.0 | 0.0 | 0.00 | 0.48 | 0.48 | 97 | 1010.7 |
| 20260510033856 | 51 | 220 | 0.0 | 0.0 | 0.00 | 0.48 | 0.48 | 97 | 1010.7 |
| 20260510033355 | 51 | 220 | 0.0 | 0.0 | 0.00 | 0.48 | 0.48 | 97 | 1010.7 |
| 20260510032355 | 51 | 220 | 0.0 | 0.0 | 0.00 | 0.48 | 0.48 | 97 | 1010.7 |
| 20260510031855 | 51 | 220 | 0.0 | 0.0 | 0.00 | 0.48 | 0.48 | 97 | 1010.5 |
| 20260510030855 | 51 | 220 | 0.0 | 5.0 | 0.00 | 0.48 | 0.48 | 97 | 1010.9 |
| 20260510030356 | 51 | 220 | 1.0 | 2.0 | 0.00 | 0.48 | 0.48 | 97 | 1010.9 |
| 20260510025855 | 51 | 219 | 0.0 | 2.0 | 0.00 | 0.48 | 0.48 | 97 | 1010.9 |
| 20260510025355 | 51 | 246 | 0.0 | 0.0 | 0.00 | 0.48 | 0.48 | 97 | 1010.7 |
| 20260510024855 | 51 | 246 | 0.0 | 0.0 | 0.00 | 0.48 | 0.48 | 97 | 1010.5 |
| 20260510024356 | 51 | 246 | 0.0 | 0.0 | 0.00 | 0.48 | 0.48 | 97 | 1010.5 |
| 20260510023855 | 51 | 246 | 0.0 | 0.0 | 0.00 | 0.48 | 0.48 | 97 | 1010.4 |
| 20260510023356 | 51 | 246 | 0.0 | 0.0 | 0.00 | 0.48 | 0.48 | 97 | 1010.3 |
| 20260510022856 | 51 | 246 | 0.0 | 0.0 | 0.00 | 0.48 | 0.48 | 97 | 1010.4 |
| 20260510022355 | 51 | 246 | 0.0 | 1.0 | 0.00 | 0.48 | 0.48 | 97 | 1010.3 |
| 20260510021855 | 51 | 246 | 0.0 | 0.0 | 0.00 | 0.48 | 0.48 | 97 | 1010.4 |
| 20260510021356 | 51 | 246 | 0.0 | 1.0 | 0.00 | 0.48 | 0.48 | 97 | 1010.5 |
| 20260510020855 | 51 | 305 | 1.0 | 2.0 | 0.00 | 0.48 | 0.48 | 97 | 1010.5 |
| 20260510020355 | 52 | 136 | 0.0 | 1.0 | 0.00 | 0.48 | 0.48 | 97 | 1010.5 |
| 20260510015856 | 52 | 92 | 0.0 | 5.0 | 0.00 | 0.48 | 0.48 | 97 | 1010.7 |
| 20260510015356 | 52 | 79 | 0.0 | 0.0 | 0.00 | 0.48 | 0.48 | 97 | 1010.8 |
| 20260510014356 | 52 | 79 | 0.0 | 0.0 | 0.00 | 0.48 | 0.48 | 97 | 1010.8 |
| 20260510013855 | 52 | 79 | 0.0 | 0.0 | 0.00 | 0.48 | 0.48 | 97 | 1010.8 |
| 20260510013356 | 52 | 79 | 0.0 | 0.0 | 0.00 | 0.48 | 0.48 | 97 | 1010.8 |
| 20260510012855 | 52 | 79 | 0.0 | 0.0 | 0.00 | 0.48 | 0.48 | 97 | 1010.8 |
| 20260510012356 | 52 | 79 | 0.0 | 0.0 | 0.00 | 0.48 | 0.48 | 97 | 1010.8 |
| 20260510011855 | 52 | 79 | 0.0 | 0.0 | 0.00 | 0.48 | 0.48 | 97 | 1010.8 |
| 20260510011356 | 52 | 79 | 0.0 | 0.0 | 0.00 | 0.48 | 0.48 | 97 | 1010.7 |
| 20260510010357 | 52 | 193 | 0.0 | 0.0 | 0.00 | 0.48 | 0.48 | 97 | 1010.3 |
| 20260510005855 | 52 | 193 | 0.0 | 0.0 | 0.00 | 0.48 | 0.48 | 97 | 1010.2 |
| 20260510005355 | 52 | 216 | 0.0 | 1.0 | 0.00 | 0.48 | 0.48 | 97 | 1010.2 |
| 20260510004855 | 52 | 251 | 0.0 | 1.0 | 0.00 | 0.48 | 0.48 | 97 | 1010.1 |
| 20260510004356 | 52 | 24 | 0.0 | 0.0 | 0.00 | 0.48 | 0.48 | 97 | 1010.1 |
| 20260510003856 | 52 | 24 | 0.0 | 0.0 | 0.00 | 0.48 | 0.48 | 97 | 1010.0 |
| 20260510003356 | 52 | 24 | 0.0 | 0.0 | 0.00 | 0.48 | 0.48 | 97 | 1010.0 |
| 20260510002856 | 52 | 24 | 0.0 | 2.0 | 0.00 | 0.48 | 0.48 | 97 | 1010.0 |
| 20260510002356 | 52 | 236 | 0.0 | 2.0 | 0.00 | 0.48 | 0.48 | 97 | 1010.0 |
| 20260510001856 | 52 | 236 | 0.0 | 0.0 | 0.00 | 0.48 | 0.48 | 97 | 1010.0 |
| 20260510001355 | 52 | 236 | 1.0 | 3.0 | 0.00 | 0.48 | 0.48 | 97 | 1009.9 |
| 20260509235855 | 52 | 136 | 2.0 | 6.0 | 0.00 | 0.48 | 0.48 | 97 | 1009.7 |
| 20260509235355 | 52 | 48 | 1.0 | 6.0 | 0.00 | 0.48 | 0.48 | 97 | 1009.7 |
| 20260509234856 | 52 | 136 | 0.0 | 3.0 | 0.00 | 0.48 | 0.48 | 97 | 1009.7 |
| 20260509234355 | 52 | 333 | 1.0 | 3.0 | 0.00 | 0.48 | 0.48 | 97 | 1009.8 |
| 20260509233855 | 52 | 255 | 1.0 | 2.0 | 0.00 | 0.48 | 0.48 | 97 | 1009.8 |
| 20260509233355 | 52 | 183 | 1.0 | 6.0 | 0.00 | 0.48 | 0.48 | 97 | 1009.7 |
| 20260509232855 | 52 | 84 | 1.0 | 5.0 | 0.00 | 0.48 | 0.48 | 97 | 1009.7 |
| 20260509232356 | 52 | 256 | 1.0 | 5.0 | 0.01 | 0.48 | 0.48 | 97 | 1009.8 |
| 20260509231355 | 52 | 247 | 1.0 | 5.0 | 0.01 | 0.48 | 0.48 | 97 | 1009.9 |
| 20260509230855 | 52 | 213 | 1.0 | 5.0 | 0.01 | 0.48 | 0.48 | 97 | 1010.0 |
| 20260509230355 | 52 | 247 | 1.0 | 5.0 | 0.02 | 0.48 | 0.48 | 97 | 1010.0 |
| 20260509225856 | 52 | 168 | 1.0 | 2.0 | 0.03 | 0.48 | 0.48 | 97 | 1010.1 |
| 20260509225356 | 52 | 233 | 1.0 | 3.0 | 0.04 | 0.48 | 0.48 | 97 | 1010.1 |
| 20260509224856 | 52 | 21 | 1.0 | 3.0 | 0.05 | 0.48 | 0.48 | 96 | 1010.1 |
| 20260509224356 | 52 | 172 | 0.0 | 0.0 | 0.06 | 0.48 | 0.48 | 96 | 1010.1 |
| 20260509223855 | 52 | 172 | 0.0 | 0.0 | 0.06 | 0.48 | 0.48 | 96 | 1010.2 |
| 20260509223355 | 52 | 172 | 0.0 | 0.0 | 0.07 | 0.48 | 0.48 | 96 | 1010.2 |
| 20260509222855 | 52 | 172 | 0.0 | 3.0 | 0.08 | 0.48 | 0.48 | 96 | 1010.3 |
| 20260509222356 | 52 | 237 | 1.0 | 3.0 | 0.08 | 0.47 | 0.47 | 96 | 1010.3 |
| 20260509221856 | 52 | 248 | 1.0 | 3.0 | 0.08 | 0.47 | 0.47 | 96 | 1010.3 |
| 20260509221356 | 53 | 208 | 1.0 | 5.0 | 0.08 | 0.47 | 0.47 | 96 | 1010.3 |
| 20260509220355 | 53 | 221 | 1.0 | 3.0 | 0.08 | 0.46 | 0.46 | 96 | 1010.3 |
| 20260509215856 | 53 | 243 | 0.0 | 2.0 | 0.07 | 0.45 | 0.45 | 96 | 1010.4 |
| 20260509215356 | 53 | 236 | 2.0 | 3.0 | 0.06 | 0.44 | 0.44 | 96 | 1010.7 |
| 20260509214856 | 53 | 250 | 2.0 | 3.0 | 0.05 | 0.43 | 0.43 | 96 | 1010.5 |
| 20260509214356 | 53 | 231 | 1.0 | 2.0 | 0.05 | 0.42 | 0.42 | 96 | 1010.5 |
| 20260509213356 | 53 | 226 | 0.0 | 2.0 | 0.05 | 0.41 | 0.41 | 96 | 1010.5 |
| 20260509212856 | 53 | 243 | 0.0 | 1.0 | 0.04 | 0.40 | 0.40 | 96 | 1010.4 |
| 20260509212355 | 53 | 200 | 0.0 | 1.0 | 0.04 | 0.39 | 0.39 | 96 | 1010.3 |
| 20260509211856 | 53 | 282 | 0.0 | 0.0 | 0.05 | 0.39 | 0.39 | 96 | 1010.4 |
| 20260509211356 | 53 | 282 | 0.0 | 0.0 | 0.06 | 0.39 | 0.39 | 96 | 1010.4 |
| 20260509210856 | 53 | 282 | 0.0 | 0.0 | 0.08 | 0.39 | 0.39 | 96 | 1010.4 |
| 20260509210356 | 53 | 282 | 0.0 | 0.0 | 0.08 | 0.38 | 0.38 | 96 | 1010.5 |
| 20260509205855 | 53 | 282 | 0.0 | 0.0 | 0.10 | 0.38 | 0.38 | 96 | 1010.5 |
| 20260509205355 | 53 | 282 | 0.0 | 0.0 | 0.12 | 0.38 | 0.38 | 96 | 1010.5 |
| 20260509204855 | 53 | 282 | 0.0 | 0.0 | 0.13 | 0.38 | 0.38 | 96 | 1010.7 |
| 20260509204356 | 53 | 288 | 1.0 | 2.0 | 0.14 | 0.37 | 0.37 | 96 | 1010.8 |
| 20260509203856 | 53 | 241 | 0.0 | 0.0 | 0.16 | 0.37 | 0.37 | 96 | 1010.8 |
| 20260509203355 | 53 | 234 | 2.0 | 9.0 | 0.17 | 0.36 | 0.36 | 96 | 1010.8 |
| 20260509202856 | 53 | 273 | 2.0 | 9.0 | 0.18 | 0.36 | 0.36 | 96 | 1010.9 |
| 20260509202356 | 53 | 272 | 1.0 | 5.0 | 0.18 | 0.35 | 0.35 | 96 | 1010.9 |
| 20260509201856 | 53 | 254 | 2.0 | 5.0 | 0.19 | 0.34 | 0.34 | 96 | 1011.0 |
| 20260509201356 | 53 | 232 | 2.0 | 5.0 | 0.19 | 0.33 | 0.33 | 96 | 1011.0 |
| 20260509200856 | 53 | 242 | 1.0 | 5.0 | 0.17 | 0.31 | 0.31 | 96 | 1010.9 |
| 20260509200356 | 53 | 93 | 0.0 | 1.0 | 0.17 | 0.30 | 0.30 | 96 | 1010.9 |
| 20260509195855 | 53 | 216 | 0.0 | 0.0 | 0.15 | 0.28 | 0.28 | 96 | 1011.0 |
| 20260509195356 | 53 | 216 | 0.0 | 0.0 | 0.13 | 0.26 | 0.26 | 96 | 1011.0 |
| 20260509194855 | 53 | 216 | 0.0 | 0.0 | 0.12 | 0.25 | 0.25 | 96 | 1011.1 |
| 20260509194356 | 53 | 216 | 0.0 | 0.0 | 0.10 | 0.23 | 0.23 | 96 | 1011.1 |
| 20260509193356 | 53 | 95 | 0.0 | 0.0 | 0.06 | 0.19 | 0.19 | 96 | 1011.2 |
| 20260509192855 | 53 | 95 | 0.0 | 0.0 | 0.05 | 0.18 | 0.18 | 96 | 1011.2 |
| 20260509192356 | 53 | 95 | 0.0 | 0.0 | 0.04 | 0.17 | 0.17 | 95 | 1011.1 |
| 20260509191855 | 54 | 95 | 0.0 | 0.0 | 0.02 | 0.15 | 0.15 | 95 | 1011.1 |
| 20260509191355 | 54 | 95 | 0.0 | 0.0 | 0.01 | 0.14 | 0.14 | 95 | 1011.1 |
| 20260509190856 | 54 | 95 | 0.0 | 2.0 | 0.01 | 0.14 | 0.14 | 95 | 1011.0 |
| 20260509190355 | 54 | 128 | 1.0 | 2.0 | 0.00 | 0.13 | 0.13 | 95 | 1011.0 |
| 20260509185856 | 54 | 85 | 0.0 | 0.0 | 0.00 | 0.13 | 0.13 | 95 | 1010.8 |
| 20260509185355 | 54 | 85 | 0.0 | 1.0 | 0.00 | 0.13 | 0.13 | 95 | 1010.9 |
| 20260509184856 | 53 | 75 | 1.0 | 1.0 | 0.00 | 0.13 | 0.13 | 95 | 1010.9 |
| 20260509184356 | 53 | 76 | 0.0 | 0.0 | 0.00 | 0.13 | 0.13 | 95 | 1011.0 |
| 20260509183856 | 53 | 76 | 0.0 | 0.0 | 0.00 | 0.13 | 0.13 | 95 | 1011.1 |
| 20260509183356 | 53 | 76 | 0.0 | 0.0 | 0.00 | 0.13 | 0.13 | 95 | 1011.0 |
| 20260509182856 | 53 | 76 | 0.0 | 2.0 | 0.00 | 0.13 | 0.13 | 95 | 1011.0 |
| 20260509182356 | 53 | 17 | 1.0 | 2.0 | 0.00 | 0.13 | 0.13 | 94 | 1010.9 |
| 20260509181856 | 53 | 83 | 0.0 | 3.0 | 0.00 | 0.13 | 0.13 | 95 | 1010.9 |
| 20260509181356 | 53 | 123 | 2.0 | 3.0 | 0.00 | 0.13 | 0.13 | 94 | 1010.9 |
| 20260509180856 | 53 | 98 | 2.0 | 5.0 | 0.01 | 0.13 | 0.13 | 95 | 1010.8 |
| 20260509180356 | 53 | 80 | 2.0 | 3.0 | 0.01 | 0.13 | 0.13 | 94 | 1010.8 |
| 20260509175856 | 53 | 101 | 2.0 | 3.0 | 0.01 | 0.13 | 0.13 | 95 | 1010.9 |
| 20260509175356 | 53 | 96 | 2.0 | 2.0 | 0.01 | 0.13 | 0.13 | 95 | 1011.0 |
| 20260509174856 | 53 | 80 | 2.0 | 3.0 | 0.01 | 0.13 | 0.13 | 95 | 1011.0 |